一网星座-0239星 (ONEWEB-0239 )

导读

ONEWEB-0239是英国OneWeb卫星互联网星座的成员,于2021年5月28日成功发射。该卫星运行于1200公里的近地轨道,发射重量约147.5公斤,配备Ku和Ka波段相控阵天线,采用氙等离子体推力器,设计寿命超7年。它属于OneWeb低轨宽带通信星座,旨在为全球提供低时延高速互联网服务,服务覆盖航空海事、偏远地区联网等场景,推动全球网络覆盖均衡化。

基本信息
目录编号:
48802
目录名称:
ONEWEB-0239
国际标识:
2021-045AM
轨道中心:
EARTH
卫星名称:
一网星座-0239星
卫星全名:
一网星座-0239星 (ONEWEB-0239 )
卫星状态:
在轨 (已飞行1886 天)
发射日期:
2021-05-28 UTC
国别 :
英国 (GB)
星等 :
--
轨道信息
数据来源 国际轨道数据
星历时间: 2026-07-27T21:57:05+0800
9小时前
查看轨道信息
半长轴: 7579.91km
偏心率: 0.0002843
轨道倾角: 87.898°
近地点辐角 100.685°
升交点赤经 251.152°
平近点角 259.460°
近地点: 1199.618km
远地点: 1203.928km
周期: 109.460分钟
每日圈数: 13.155482
详细信息
平衡模式:
三轴稳定
覆盖范围:
全球
运营商:
一网卫星公司
运营商所在国:
英国
制造商(研发单位):
一网卫星公司
制造商所在国:
英国
使用方式:
暂无
卫星简介
OneWeb卫星网络由648颗重约125公斤的微型卫星组成,运行在1200公里的轨道上。 每颗卫星都能够提供至少每秒8千兆位的吞吐量,以使用其高吞吐量的Ku频段有效载荷为家庭和移动平台提供互联网接入。该卫星仍在工作。
2D轨道图
3D轨道图
轨道高度分析图
轨道倾角分析图
轨道综合分析图
查看轨道综合分析图